DW2516 Weather Reports


time (UTC)temp
C
wind
direction
speed
KPH
gust
KPH
rain 1hr
cm
rain 24hr
cm
rain mn
cm
humidity
%
barometer
mb
20260507161521 19 0.0 0.0 0.00 0.00 0.00 53 1010.1
20260507160019 19 0.0 0.0 0.00 0.00 0.00 52 1010.0
20260507154521 19 0.0 0.0 0.00 0.00 0.00 50 1010.0
20260507153022 20 0.0 0.0 0.00 0.00 0.00 51 1010.2
20260507151517 20 0.0 0.0 0.00 0.00 0.00 47 1010.2
20260507150017 20 0.0 0.0 0.00 0.00 0.00 46 1010.1
20260507144515 20 0.0 0.0 0.00 0.00 0.00 47 1010.2
20260507143014 21 0.0 0.0 0.00 0.00 0.00 48 1010.2
20260507141515 21 0.0 0.0 0.00 0.00 0.00 47 1010.3
20260507140027 21 0.0 0.0 0.00 0.00 0.00 48 1010.4
20260507134511 20 0.0 0.0 0.00 0.00 0.00 48 1010.4
20260507133007 20 0.0 0.0 0.00 0.00 0.00 50 1010.6
20260507131504 20 0.0 0.0 0.00 0.00 0.00 50 1010.8
20260507130002 19 0.0 0.0 0.00 0.00 0.00 50 1010.7
20260507124603 18 0.0 0.0 0.00 0.00 0.00 55 1010.7
20260507123103 18 0.0 0.0 0.00 0.00 0.00 55 1010.7
20260507121557 18 0.0 0.0 0.00 0.00 0.00 55 1010.9
20260507120055 18 0.0 0.0 0.00 0.00 0.00 55 1011.0
20260507114554 18 0.0 0.0 0.00 0.00 0.00 56 1010.9
20260507113126 18 0.0 0.0 0.00 0.00 0.00 56 1010.9
20260507111550 17 0.0 0.0 0.00 0.00 0.00 57 1011.0
20260507110049 17 0.0 0.0 0.00 0.00 0.00 57 1011.2
20260507104559 17 0.0 0.0 0.00 0.00 0.00 57 1011.4
20260507103048 17 0.0 0.0 0.00 0.00 0.00 58 1011.3
20260507101540 17 0.0 0.0 0.00 0.00 0.00 59 1011.2
20260507100046 17 0.0 0.0 0.00 0.00 0.00 62 1011.3
20260507094538 16 0.0 0.0 0.00 0.00 0.00 62 1011.4
20260507093035 16 0.0 0.0 0.00 0.00 0.00 62 1011.3
20260507091537 16 0.0 0.0 0.00 0.00 0.00 61 1011.2
20260507090029 16 0.0 0.0 0.00 0.00 0.00 61 1011.0
20260507084544 16 0.0 0.0 0.00 0.00 0.00 62 1010.9
20260507083027 16 0.0 0.0 0.00 0.00 0.00 62 1010.5
20260507081524 16 0.0 0.0 0.00 0.00 0.00 63 1010.4
20260507080055 16 0.0 0.0 0.00 0.00 0.00 62 1010.3
20260507074553 16 0.0 0.0 0.00 0.00 0.00 63 1010.3
20260507073053 15 0.0 0.0 0.00 0.00 0.00 64 1010.1
20260507071548 15 0.0 0.0 0.00 0.00 0.00 65 1010.0
20260507070059 15 0.0 0.0 0.00 0.00 0.00 66 1009.8
20260507064547 15 0.0 0.0 0.00 0.00 0.00 66 1009.9
20260507063041 15 0.0 0.0 0.00 0.00 0.00 67 1009.8
20260507061540 14 0.0 0.0 0.00 0.00 0.00 70 1009.6
20260507060039 14 0.0 0.0 0.00 0.00 0.00 71 1009.4
20260507054538 13 0.0 0.0 0.00 0.00 0.00 73 1009.4
20260507053029 13 0.0 0.0 0.00 0.00 0.00 77 1009.2
20260507051528 13 0.0 0.0 0.00 0.00 0.00 78 1009.0
20260507050047 13 0.0 0.0 0.00 0.00 0.00 79 1008.8
20260507044524 13 0.0 0.0 0.00 0.00 0.00 79 1008.5
20260507043019 13 0.0 0.0 0.00 0.00 0.00 79 1008.2
20260507041516 13 0.0 0.0 0.00 0.00 0.00 80 1008.0
20260507040015 13 0.0 0.0 0.00 0.00 0.00 80 1007.9
20260507034607 13 0.0 0.0 0.00 0.00 0.00 79 1007.9
20260507033100 13 0.0 0.0 0.00 0.00 0.00 78 1007.7
20260507031530 13 0.0 0.0 0.00 0.00 0.00 78 1007.7
20260507030022 13 0.0 0.0 0.00 0.00 0.00 77 1007.4
20260507024519 14 0.0 0.0 0.00 0.00 0.00 76 1007.2
20260507023016 14 0.0 0.0 0.00 0.00 0.00 74 1007.4
20260507021524 15 0.0 0.0 0.00 0.00 0.00 74 1007.3
20260507020021 15 0.0 0.0 0.00 0.00 0.00 74 1007.5
20260507014519 15 0.0 0.0 0.00 0.00 0.00 74 1007.1
20260507013011 15 0.0 0.0 0.00 0.00 0.00 73 1007.0
20260507011516 15 0.0 0.0 0.00 0.00 0.00 75 1007.1
20260507010021 15 0.0 0.0 0.00 0.00 0.00 76 1006.9
20260507004507 15 0.0 0.0 0.00 0.00 0.00 76 1006.8
20260507003005 15 0.0 0.0 0.00 0.00 0.00 76 1006.8
20260507001504 15 0.0 0.0 0.00 0.00 0.00 75 1006.8
20260507000003 15 0.0 0.0 0.00 0.00 0.00 75 1006.6
20260506234626 15 0.0 0.0 0.00 0.00 0.00 74 1006.6
20260506233057 15 0.0 0.0 0.00 0.00 0.00 74 1006.4
20260506231546 16 0.0 0.0 0.00 0.00 0.00 73 1006.0
20260506230044 16 0.0 0.0 0.00 0.00 0.00 73 1005.9
20260506224545 16 0.0 0.0 0.00 0.00 0.00 72 1005.7
20260506223029 16 0.0 0.0 0.00 0.00 0.00 72 1005.5
20260506221527 16 0.0 0.0 0.00 0.00 0.00 72 1005.5
20260506220030 16 0.0 0.0 0.00 0.00 0.00 72 1005.2
20260506214523 16 0.0 0.0 0.00 0.00 0.00 72 1005.2
20260506213028 16 0.0 0.0 0.00 0.00 0.00 71 1005.1
20260506211524 17 0.0 0.0 0.00 0.00 0.00 71 1005.0
20260506210008 17 0.0 0.0 0.00 0.00 0.00 70 1005.1
20260506204509 17 0.0 0.0 0.00 0.00 0.00 69 1004.9
20260506203019 17 0.0 0.0 0.00 0.00 0.00 68 1004.8
20260506201509 17 0.0 0.0 0.00 0.00 0.00 67 1004.8
20260506200005 17 0.0 0.0 0.00 0.00 0.00 67 1004.8
20260506194507 18 0.0 0.0 0.00 0.00 0.00 66 1004.6
20260506193003 18 0.0 0.0 0.00 0.00 0.00 65 1004.5
20260506191506 18 0.0 0.0 0.00 0.00 0.00 64 1004.4
20260506190006 18 0.0 0.0 0.00 0.00 0.00 63 1004.3
20260506184605 18 0.0 0.0 0.00 0.00 0.00 63 1004.0
20260506183104 18 0.0 0.0 0.00 0.00 0.00 62 1003.7
20260506181600 19 0.0 0.0 0.00 0.00 0.00 61 1003.5
20260506180056 19 0.0 0.0 0.00 0.00 0.00 60 1003.8
20260506174601 20 0.0 0.0 0.00 0.00 0.00 59 1003.7
20260506173108 20 0.0 0.0 0.00 0.00 0.00 58 1003.7
20260506171559 20 0.0 0.0 0.00 0.00 0.00 57 1003.5
20260506170052 20 0.0 0.0 0.00 0.00 0.00 56 1003.4
20260506164556 21 0.0 0.0 0.00 0.00 0.00 54 1003.7
20260506163054 21 0.0 0.0 0.00 0.00 0.00 52 1003.7